Погода в Бомнаке

Погода в Бомнаке : погода сейчас, прогноз погоды и архив. Всё, что Вы хотите узнать о погоде в Бомнаке!

Поиск расширенной информации на нашем сайте:

Другие новости

Новости СМИ2

Главная страница сайта

Новости сайта

02.10.2013

Напоминаем, что на нашем новом сайте вы можете получить высокодетализированные прогнозы погоды по пунктам России, СНГ и мира (включающие важные для авиации метеовеличины, такие как направление и скорость ветра, видимость, явления погоды, количество и форма облачности, нижняя и верхняя граница облачности), а также ознакомиться с разнообразными материалами по авиационной метеорологии и подборкой полезных ссылок на эту тему.

Сайт Метеоцентр.Азия посвящён разработке технологий оптимизации авиаметеорологического обслуживания, включая проектирование и перспективное создание нескольких автоматизированных авиаметеорологических систем:
- система выпуска высокодетальных прогностических карт явлений погоды для нижнего воздушного пространства по России и ближнему зарубежью;
- система верификации прогнозов TAF (выпускаемых синоптиками официальных АМСГ РФ и ближнего зарубежья) и AUTOTAF (выпускаемых сайтом Метеоцентр.Азия) - выявление ошибок, онлайн-сопоставление с фактической погодой METAR, автоматическое внесение коррективов в прогнозы при резком отклонении фактической погоды от прогноза, подсчёт оправдываемости прогнозов по элементам и в целом;
- система обработки, анализа и отображения авиаметеорологической информации для применения провайдерами метеорологической информации.

Рекомендуем: Компьютерная помощь в Москве chibal.ru.

Погода в Бомнаке - сегодня

Время (UTC), дата Ветер
(°,м/с) 
Видим.   Явления Облачность Т
(°С)
Тd
(°С)
f(%) Тe
(°С)
Pmin
(гПа)
dP
(гПа)
Po
(мм)
O2
(г/м3)
Тmin Tmax R s Состояние
почвы
21 21.02.17 090 (В) 20000 м    4/0 верхняя 
[Ci fib]
-25.3 -27.2 84 -26  1020.8  -0.1  728  325           
00 22.02.17 тихо ()   20000 м    ясно 
-24.7 -27.2 80 -25  1020.4  -0.3  728  324  -26.6      21  равномерный
сухой снег
100% 
03 22.02.17 180 (Ю) н/о    н/о 
-20 -25.3 63 -23  1018.9  -0.6  728  318           
06 22.02.17 тихо ()   20000 м    ясно 
-14 -20.1 60 -14  1015.6  -1.8  726  310           
09 22.02.17 320 (СЗ) н/о    н/о 
-12.4 -25.5 33 -17  1015.5  726  308           
12 22.02.17 320 (СЗ) 20000 м    ясно 
-17 -26.1 45 -19  1017.1  0.8  727  314    -10.9       
15 22.02.17 320 (СЗ) 20000 м    ясно 
-17.5 -25.4 50 -21  1016.6  -0.4  726  314           
18 22.02.17 320 (СЗ) 20000 м    ясно 
-18.4 -25.2 55 -23  1016.3  -0.5  726  315           
21 22.02.17 320 (СЗ) 20000 м    3/0 верхняя 
[Ci fib]
-23.5 -28.3 65 -27  1016.5  -0.8  725  322           
00 23.02.17 тихо ()   20000 м    10/0 верхняя 
[Cs]
-24.8 -28.7 70 -25  1016.2  -0.6  725  323  -24.8      21  равномерный
сухой снег
100% 
03 23.02.17 200 (Ю) н/о    н/о 
-19.2 -24.7 62 -22  1013.5  -1.6  724  315  -25.4         
06 23.02.17 тихо ()   20000 м    10/0 средняя, верхняя 
[Ac trans|Ci fib]
-13.3 -20.4 55 -13  1010.1  -2  722  307           
09 23.02.17 тихо ()   20000 м    10/0 средняя, верхняя 
[Ac trans|Ci fib]
-13.4 -19.5 60 -13  1009.7  -0.3  722  307           
12 23.02.17 тихо ()   20000 м    10/0 верхняя 
[Ci fib]
-15.3 -21.3 60 -15  1009.6  -0.4  722  310    -11.8       
15 23.02.17 250 (З) 20000 м    4/0 верхняя 
[Ci fib]
-18 -23 65 -18  1009  -1.2  721  313           
18 23.02.17 тихо ()   20000 м    6/0 средняя, верхняя 
[Ac trans|Ci fib]
-23.8 -27 75 -24  1009.1  -1  720  320           
21 23.02.17 320 (СЗ) 20000 м    3/0 верхняя 
[Ci fib]
-22.3 -24.9 79 -25  1008.2  -0.5  720  317           
00 24.02.17 320 (СЗ) 20000 м    3/0 верхняя 
[Ci fib]
-20.9 -25.8 65 -28  1008.6  0.6  720  316  -26.1      21  равномерный
сухой снег
100% 
03 24.02.17 360 (С) 6{10}  20000 м    10/0 верхняя 
[Cs]
-17.1 -27.5 40 -24  1009.7  1.8  722  312           
06 24.02.17 340 (С) 20000 м    ясно 
-15.1 -27.2 35 -21  1010.5  1.1  722  310           
09 24.02.17 340 (С) 20000 м    10/0 верхняя 
[Cs]
-16 -28 35 -21  1012.2  1.5  723  311           
12 24.02.17 340 (С) 20000 м    10/0 верхняя 
[Cs]
-17.2 -27.6 40 -21  1012.3  -0.1  723  313    -14.6       
15 24.02.17 340 (С) 20000 м    10/0 верхняя 
[Cs]
-17.8 -26.9 45 -22  1012.2  -0.3  723  313           
18 24.02.17 340 (С) 20000 м    10/0 верхняя 
[Cs]
-19 -26.8 50 -19  1012.7  0.3  723  315           
21 24.02.17 тихо ()   20000 м    4/0 средняя, верхняя 
[Ac trans|Ci fib]
-21.3 -28 55 -21  1013.8  0.6  724  318           
Время (UTC), дата Ветер
(°,м/с) 
Видим.   Явления Облачность Т
(°С)
Тd
(°С)
f(%) Тe
(°С)
Pmin
(гПа)
dP
(гПа)
Po
(мм)
O2
(г/м3)
Тmin Tmax R s Состояние
почвы

Для получения пояснительной информации подведите курсор к названию столбца.

ПОГОДА в Бомнаке - архив

Всё, что Вы хотите узнать о погоде в Бомнаке - удобно и подробно!

Выберите нужную дату (начиная с 1 января 2015* года) и нажмите кнопку "Найти".
Будут отображены архивные сводки погоды по пункту Бомнак, начиная с указанной даты.


Отображать данные в формате CSV (для использования в таблицах Excel)


Внимание! Наш архив погоды предназначен исключительно для личного некоммерческого использования в познавательных целях. Если Вам необходимы официальные справки о состоянии погоды (для производственных, юридических, коммерческих и т.п. целей), обращайтесь в органы Росгидромета.

*Примечание: данная дата относится к архиву по метеостанциям СССР (Россия, СНГ, Балтия).
Архив по метеостанциям Зарубежной Европы и Азии (кроме Китая) хранится 10 дней, по другим регионам земного шара (Китай, Африка, Америка, Австралия, Океания) - 1 день.

Бомнак - район местоположения метеостанции


Название, широта, долгота, высота метеостанции:
Бомнак 54.7°ш. 128.9°д. 357 м над ур. моря [Российская Федерация]

Дополнительная информация

В oтличие oт бoльшинства пoгoдных сайтoв мы публикуем пoдрoбную метеoинфoрмацию в детальнoм прoфессиoнальнoм фoрмате.

Характеристики температуры и влажнoсти вoздуха измеряются на высoте 2 м в тени вдали oт зданий и деревьев.
Скoрoсть ветра измеряется на высoте 10 м (на урoвне рoста челoвека скoрoсть ветра ниже в 1.5-2 раза). Если метеoстанция нахoдится в гoрoде или в лесу, тo скoрoсть ветра занижена на 2-4 м/с пo сравнению с oткрытым местoм. Скoрoсть ветра над акватoриями крупных рек и oзёр, а также на вершинах хoлмoв на 2-5 м/с выше, чем в oбычных услoвиях.
Атмoсфернoе давление в разных тoчках местнoсти мoжет значительнo oтличаться oт давления на метеoстанции, в зависимoсти oт услoвий рельефа (при пoдъёме на 10 м давление пoнижается примернo на 1 мм рт.ст.).